DW2150 Weather Reports


time (UTC)temp
F
wind
direction
speed
knots
gust
knots
rain 1hr
in
rain 24hr
in
rain mn
in
humidity
%
barometer
mb
20260902163237 90 262 1.7 7.0 0.00 0.01 0.00 82 1015.9
20260902162715 89 261 2.6 7.0 0.00 0.01 0.00 83 1015.9
20260902162212 90 16 1.7 7.0 0.00 0.01 0.00 82 1015.9
20260902161709 90 263 1.7 8.7 0.00 0.01 0.00 82 1015.9
20260902161205 90 251 2.6 8.7 0.00 0.01 0.00 82 1015.9
20260902160701 90 245 4.3 8.7 0.00 0.01 0.00 82 1015.9
20260902160139 89 260 2.6 4.3 0.00 0.01 0.00 84 1015.9
20260902155617 89 269 0.9 5.2 0.00 0.01 0.00 86 1015.9
20260902155110 88 271 1.7 5.2 0.00 0.01 0.00 86 1015.9
20260902154533 87 263 1.7 5.2 0.00 0.01 0.00 87 1015.9
20260902153959 86 251 2.6 5.2 0.00 0.01 0.00 87 1015.9
20260902153457 86 237 1.7 4.3 0.00 0.01 0.00 88 1015.6
20260902152954 85 268 1.7 5.2 0.00 0.01 0.00 88 1015.6
20260902152419 85 244 1.7 5.2 0.00 0.01 0.00 89 1015.6
20260902151916 85 234 0.9 5.2 0.00 0.01 0.00 89 1015.6
20260902151343 84 256 1.7 5.2 0.00 0.01 0.00 90 1015.6
20260902150839 84 242 1.7 5.2 0.00 0.01 0.00 90 1015.6
20260902150335 83 229 0.9 4.3 0.00 0.01 0.00 90 1015.6
20260902145832 83 267 0.9 4.3 0.00 0.01 0.00 90 1015.6
20260902145330 82 237 0.9 2.6 0.00 0.01 0.00 90 1015.6
20260902144826 82 250 1.7 2.6 0.00 0.01 0.00 91 1015.6
20260902144323 82 253 0.0 2.6 0.00 0.01 0.00 91 1015.6
20260902143820 81 249 1.7 2.6 0.00 0.01 0.00 91 1015.6
20260902143317 81 238 0.9 1.7 0.00 0.01 0.00 91 1015.6
20260902142814 81 155 0.0 0.0 0.00 0.01 0.00 92 1015.6
20260902142311 80 155 0.0 0.0 0.00 0.01 0.00 92 1015.6
20260902141808 80 155 0.0 0.0 0.00 0.01 0.00 92 1015.6
20260902141228 80 155 0.0 0.0 0.00 0.01 0.00 92 1015.6
20260902140725 79 155 0.0 0.0 0.00 0.01 0.00 92 1015.6
20260902140202 79 155 0.0 0.0 0.00 0.01 0.00 92 1015.6
20260902135700 79 155 0.0 0.0 0.00 0.01 0.00 92 1015.6
20260902135157 79 155 0.0 0.0 0.00 0.01 0.00 92 1015.6
20260902134654 79 155 0.0 0.0 0.00 0.01 0.00 92 1015.6
20260902134151 78 155 0.0 0.0 0.00 0.01 0.00 92 1015.6
20260902133648 78 155 0.0 0.0 0.00 0.01 0.00 92 1015.2
20260902133145 78 155 0.0 0.0 0.00 0.01 0.00 92 1015.6
20260902132611 78 155 0.0 0.0 0.00 0.01 0.00 92 1015.6
20260902132050 78 155 0.0 0.0 0.00 0.01 0.00 92 1015.2
20260902131547 78 155 0.0 0.0 0.00 0.01 0.00 92 1015.2
20260902131044 78 155 0.0 0.0 0.00 0.01 0.00 92 1015.2
20260902130540 78 155 0.0 0.0 0.00 0.01 0.00 92 1014.9
20260902130036 78 155 0.0 0.0 0.00 0.01 0.00 92 1015.2
20260902125533 77 155 0.0 0.0 0.00 0.01 0.00 92 1015.2
20260902125030 77 155 0.0 0.0 0.00 0.01 0.00 92 1014.9
20260902124527 77 155 0.0 0.0 0.00 0.01 0.00 91 1014.9
20260902124024 77 155 0.0 0.0 0.00 0.01 0.00 91 1014.9
20260902123521 77 155 0.0 0.0 0.00 0.01 0.00 91 1014.9
20260902123018 77 155 0.0 0.0 0.00 0.01 0.00 91 1014.6
20260902122010 78 155 0.0 0.0 0.00 0.01 0.00 91 1014.2
20260902121436 78 155 0.0 0.0 0.00 0.01 0.00 91 1014.2
20260902120933 78 155 0.0 1.7 0.00 0.01 0.00 92 1014.2
20260902120431 78 155 0.0 2.6 0.00 0.01 0.00 92 1014.2
20260902115926 79 155 0.0 4.3 0.00 0.01 0.00 91 1014.6
20260902115352 79 155 0.0 4.3 0.00 0.01 0.00 92 1014.6
20260902114849 80 157 1.7 4.3 0.00 0.01 0.00 92 1014.6
20260902114347 80 181 0.9 4.3 0.00 0.01 0.00 94 1014.6
20260902113844 80 292 0.0 0.0 0.00 0.01 0.00 93 1014.2
20260902113341 80 292 0.0 0.0 0.00 0.01 0.00 93 1013.9
20260902112837 80 292 0.0 0.0 0.00 0.01 0.00 93 1014.2
20260902112334 80 292 0.0 0.0 0.00 0.01 0.00 93 1014.2
20260902111829 80 292 0.0 0.0 0.00 0.01 0.00 93 1013.9
20260902111326 80 292 0.0 0.0 0.00 0.01 0.00 93 1013.9
20260902110824 80 292 0.0 0.0 0.00 0.01 0.00 93 1013.9
20260902110302 80 292 0.0 0.0 0.00 0.01 0.00 93 1013.9
20260902105744 80 292 0.0 0.0 0.00 0.01 0.00 93 1013.9
20260902105209 80 292 0.0 0.0 0.00 0.01 0.00 93 1013.9
20260902104651 80 292 0.0 0.0 0.00 0.01 0.00 93 1014.2
20260902104116 80 292 0.0 0.0 0.00 0.01 0.00 93 1014.2
20260902103614 80 292 0.0 1.7 0.00 0.01 0.00 93 1014.2
20260902103111 80 292 0.0 1.7 0.00 0.01 0.00 93 1013.9
20260902102549 80 292 0.0 1.7 0.00 0.01 0.00 93 1013.9
20260902102047 80 292 0.0 1.7 0.00 0.01 0.00 93 1013.9
20260902101513 80 302 0.0 0.9 0.00 0.01 0.00 93 1013.9
20260902101010 80 302 0.9 0.9 0.00 0.01 0.00 93 1013.9
20260902100507 80 302 0.0 0.0 0.00 0.01 0.00 92 1013.9
20260902100004 80 302 0.0 0.0 0.00 0.01 0.00 92 1013.9
20260902095501 80 302 0.0 0.0 0.00 0.01 0.00 92 1013.5
20260902094959 80 303 0.0 0.0 0.00 0.01 0.00 92 1013.9
20260902094456 80 303 0.0 0.0 0.00 0.01 0.00 92 1013.9
20260902093952 80 299 0.0 0.0 0.00 0.01 0.00 92 1013.9
20260902093430 80 299 0.0 0.0 0.00 0.01 0.00 92 1013.9
20260902092927 80 299 0.0 0.0 0.00 0.01 0.00 92 1013.9
20260902092353 80 299 0.0 0.0 0.00 0.01 0.00 92 1013.5
20260902091850 80 299 0.0 0.0 0.00 0.01 0.00 92 1013.9
20260902091347 80 299 0.0 0.0 0.00 0.01 0.00 92 1013.5
20260902090844 80 187 0.0 0.0 0.00 0.01 0.00 92 1013.5
20260902090303 80 187 0.0 0.0 0.00 0.01 0.00 92 1013.5
20260902085710 80 187 0.0 0.0 0.00 0.01 0.00 92 1013.5
20260902085207 80 300 0.0 0.0 0.00 0.01 0.00 92 1013.5
20260902084704 80 300 0.0 0.0 0.00 0.01 0.00 92 1013.5
20260902084201 80 301 0.0 0.0 0.00 0.01 0.00 92 1013.5
20260902083658 80 301 0.0 0.0 0.00 0.01 0.00 92 1013.5
20260902083136 80 301 0.0 0.0 0.00 0.01 0.00 92 1013.9
20260902082633 80 301 0.0 0.0 0.00 0.01 0.00 92 1013.9
20260902082110 80 214 0.0 0.0 0.00 0.01 0.00 92 1013.5
20260902081607 80 213 0.0 0.0 0.00 0.01 0.00 92 1013.5
20260902081103 80 299 0.0 0.0 0.00 0.01 0.00 92 1013.9
20260902080543 80 298 0.0 0.0 0.00 0.01 0.00 92 1013.9
20260902075938 80 299 0.0 0.0 0.00 0.01 0.00 92 1013.9
20260902075435 80 329 0.0 0.9 0.00 0.01 0.00 92 1013.9
20260902074932 80 339 0.0 0.9 0.00 0.01 0.00 92 1013.9
20260902074429 80 338 0.0 0.9 0.00 0.01 0.00 92 1013.9
20260902073926 80 338 0.9 0.9 0.00 0.01 0.00 92 1013.9
20260902073423 80 342 0.9 0.9 0.00 0.01 0.00 92 1013.9
20260902072849 80 342 0.0 0.9 0.00 0.01 0.00 92 1013.9
20260902072346 80 342 0.0 0.9 0.00 0.01 0.00 92 1013.9
20260902071843 80 342 0.0 0.9 0.00 0.01 0.00 92 1013.9
20260902071340 80 342 0.9 0.9 0.00 0.01 0.00 92 1013.9
20260902070837 81 342 0.0 0.9 0.00 0.01 0.00 92 1013.9
20260902070334 80 342 0.0 0.9 0.00 0.01 0.00 92 1013.9
20260902065728 81 342 0.0 0.9 0.00 0.01 0.00 92 1013.9
20260902065226 81 342 0.0 0.9 0.00 0.01 0.00 92 1013.9
20260902064723 81 299 0.9 0.9 0.00 0.01 0.00 92 1013.9
20260902064221 80 300 0.9 0.9 0.00 0.01 0.00 92 1013.9
20260902063718 80 300 0.9 0.9 0.00 0.01 0.00 92 1013.9
20260902063144 80 300 0.9 0.9 0.00 0.01 0.00 92 1013.9
20260902062641 80 298 0.0 0.0 0.00 0.01 0.00 92 1013.9
20260902062107 80 298 0.0 0.0 0.00 0.01 0.00 92 1013.9
20260902061603 80 298 0.0 0.0 0.00 0.01 0.00 92 1013.9
20260902061029 80 298 0.0 0.9 0.00 0.01 0.00 91 1013.9
20260902060526 80 298 0.0 0.9 0.00 0.01 0.00 91 1013.9
20260902055953 81 298 0.0 0.9 0.00 0.01 0.00 91 1013.9
20260902055417 81 300 0.9 0.9 0.00 0.01 0.00 91 1013.9
20260902054914 81 298 0.9 0.9 0.00 0.01 0.00 91 1013.9
20260902054410 81 299 0.9 0.9 0.00 0.01 0.00 91 1013.5
20260902053828 81 299 0.0 0.9 0.00 0.01 0.00 91 1013.5
20260902053247 81 299 0.0 0.9 0.00 0.01 0.00 91 1013.9
20260902052744 81 299 0.0 0.0 0.00 0.01 0.00 91 1013.9
20260902052241 81 299 0.0 0.0 0.00 0.01 0.00 91 1013.9
20260902051738 81 299 0.0 0.0 0.00 0.01 0.01 91 1013.9
20260902051235 81 299 0.0 0.0 0.00 0.01 0.01 91 1013.9
20260902050732 81 299 0.0 0.0 0.00 0.01 0.01 91 1013.9
20260902050229 81 299 0.0 0.0 0.00 0.01 0.01 91 1013.9
20260902045726 81 299 0.0 0.9 0.00 0.01 0.01 91 1013.9
20260902045223 81 299 0.0 0.9 0.00 0.01 0.01 91 1013.9
20260902044720 81 299 0.0 0.9 0.00 0.01 0.01 91 1013.9
20260902044216 81 299 0.9 0.9 0.00 0.01 0.01 91 1013.9
20260902043713 81 240 0.0 0.9 0.00 0.01 0.01 91 1013.9
20260902043139 81 240 0.0 0.9 0.00 0.01 0.01 91 1013.9
20260902042636 80 240 0.0 0.9 0.00 0.01 0.01 91 1013.9
20260902042133 80 240 0.0 0.9 0.00 0.01 0.01 91 1013.9
20260902041630 80 240 0.0 0.9 0.00 0.01 0.01 91 1013.9
20260902041127 80 244 0.0 0.0 0.00 0.01 0.01 91 1013.9
20260902040622 80 244 0.0 0.0 0.00 0.01 0.01 91 1013.9
20260902040119 80 244 0.0 0.0 0.00 0.01 0.01 91 1013.9
20260902035616 80 244 0.0 0.0 0.00 0.01 0.01 91 1013.9
20260902035113 80 244 0.0 0.0 0.00 0.01 0.01 91 1013.9
20260902034538 80 244 0.0 0.0 0.00 0.01 0.01 91 1013.9
20260902034017 80 244 0.0 0.0 0.00 0.01 0.01 91 1014.2
20260902033513 79 244 0.0 0.0 0.00 0.01 0.01 90 1013.9
20260902033010 79 244 0.0 0.0 0.00 0.01 0.01 90 1013.9
20260902032507 79 244 0.0 0.0 0.00 0.01 0.01 90 1013.9
20260902032004 79 244 0.0 0.0 0.00 0.01 0.01 90 1013.9
20260902031501 79 244 0.0 0.0 0.00 0.01 0.01 90 1013.9
20260902030958 79 244 0.0 0.0 0.00 0.01 0.01 90 1013.9
20260902030454 79 244 0.0 0.0 0.00 0.01 0.01 90 1013.5
20260902025920 79 244 0.0 0.0 0.00 0.01 0.01 90 1013.5
20260902025417 79 244 0.0 0.0 0.00 0.01 0.01 90 1013.5
20260902024914 80 244 0.0 0.0 0.00 0.01 0.01 90 1013.5
20260902024412 80 244 0.0 0.0 0.00 0.01 0.01 90 1013.5
20260902023837 80 244 0.0 0.0 0.00 0.01 0.01 90 1013.2
20260902023334 80 244 0.0 0.0 0.00 0.01 0.01 90 1013.2
20260902022831 80 244 0.0 0.0 0.00 0.01 0.01 90 1013.2
20260902022328 80 244 0.0 0.0 0.00 0.01 0.01 89 1013.2
20260902021809 80 244 0.0 0.0 0.00 0.01 0.01 89 1013.2
20260902021307 80 244 0.0 0.0 0.00 0.01 0.01 89 1012.9
20260902020713 80 244 0.0 0.0 0.00 0.01 0.01 89 1012.9
20260902020104 80 244 0.0 0.0 0.00 0.01 0.01 89 1012.9
20260902015518 80 244 0.0 0.0 0.00 0.01 0.01 89 1012.9
20260902014944 80 244 0.0 0.0 0.00 0.01 0.01 88 1012.9
20260902014410 80 244 0.0 0.0 0.00 0.01 0.01 88 1012.9
20260902013907 80 244 0.0 0.0 0.00 0.01 0.01 88 1012.5
20260902013404 81 244 0.0 0.0 0.00 0.01 0.01 88 1012.5
20260902012900 81 244 0.0 0.0 0.00 0.01 0.01 88 1012.5
20260902012326 81 244 0.0 0.0 0.00 0.01 0.01 87 1012.5
20260902011823 81 244 0.0 0.0 0.00 0.01 0.01 87 1012.5
20260902010815 82 244 0.0 1.7 0.00 0.01 0.01 87 1012.2
20260902010311 82 244 0.0 3.5 0.00 0.01 0.01 86 1012.5
20260902005646 82 244 0.0 3.5 0.00 0.01 0.01 86 1012.2
20260902005143 82 244 0.9 3.5 0.00 0.01 0.01 86 1012.5
20260902004639 82 263 1.7 4.3 0.00 0.01 0.01 85 1012.5
20260902004137 82 252 0.9 5.2 0.00 0.01 0.01 85 1012.5
20260902003634 82 252 1.7 5.2 0.00 0.01 0.01 85 1012.5
20260902003131 82 302 0.9 5.2 0.00 0.01 0.01 84 1012.5
20260902002628 83 248 3.5 5.2 0.00 0.01 0.01 84 1012.5
20260902002124 83 243 0.9 4.3 0.00 0.01 0.01 85 1012.5
20260902001621 83 234 1.7 4.3 0.00 0.01 0.01 85 1012.5
20260902001118 83 260 1.7 4.3 0.00 0.01 0.01 85 1012.9
20260902000615 83 268 1.7 4.3 0.00 0.01 0.01 84 1012.9
20260902000113 83 254 0.9 4.3 0.00 0.01 0.01 85 1012.9
20260901235542 83 254 1.7 5.2 0.00 0.01 0.01 85 1012.5
20260901235021 83 264 1.7 5.2 0.00 0.01 0.01 84 1012.5
20260901234518 83 247 1.7 5.2 0.00 0.01 0.01 84 1012.9
20260901233956 83 255 1.7 5.2 0.00 0.01 0.01 85 1012.9
20260901233453 83 250 2.6 4.3 0.00 0.01 0.01 86 1012.5
20260901232950 83 290 1.7 4.3 0.00 0.01 0.01 86 1012.5
20260901232447 83 266 1.7 4.3 0.00 0.01 0.01 86 1012.9
20260901231926 83 248 1.7 4.3 0.00 0.01 0.01 86 1012.9
20260901231423 83 298 0.9 3.5 0.00 0.01 0.01 86 1012.9
20260901230920 84 262 0.0 2.6 0.00 0.01 0.01 87 1012.9
20260901230241 84 263 0.0 2.6 0.00 0.01 0.01 87 1012.9
20260901225706 84 300 1.7 3.5 0.00 0.01 0.01 87 1012.9
20260901225202 84 257 0.9 3.5 0.00 0.01 0.01 86 1013.2
20260901224700 84 258 1.7 3.5 0.00 0.01 0.01 86 1013.2
20260901224157 84 57 0.9 5.2 0.00 0.01 0.01 86 1013.2
20260901223653 84 78 0.9 5.2 0.00 0.01 0.01 85 1013.2
20260901223150 85 307 0.9 5.2 0.00 0.01 0.01 85 1013.2
20260901222647 85 265 1.7 3.5 0.00 0.01 0.01 85 1012.9
20260901222144 85 273 1.7 6.1 0.00 0.01 0.01 86 1012.9
20260901221641 85 272 0.9 6.1 0.00 0.01 0.01 86 1012.9
20260901221138 85 272 1.7 6.1 0.00 0.01 0.01 86 1012.9
20260901220635 85 252 2.6 6.1 0.00 0.01 0.01 85 1012.9
20260901220113 85 254 1.7 5.2 0.00 0.01 0.01 85 1012.9
20260901215547 85 257 2.6 5.2 0.00 0.01 0.01 85 1012.9
20260901215044 85 251 2.6 5.2 0.00 0.01 0.01 85 1012.9
20260901214541 85 255 2.6 6.1 0.00 0.01 0.01 85 1012.9
20260901214007 85 253 2.6 6.1 0.00 0.01 0.01 84 1013.2
20260901213502 85 250 2.6 6.1 0.00 0.01 0.01 84 1013.2
20260901212959 85 249 3.5 6.1 0.00 0.01 0.01 83 1013.2
20260901212456 85 255 1.7 5.2 0.00 0.01 0.01 83 1013.5
20260901211953 85 255 1.7 5.2 0.00 0.01 0.01 83 1013.5
20260901211450 85 286 0.9 5.2 0.00 0.01 0.01 83 1013.5
20260901210947 85 269 1.7 5.2 0.00 0.01 0.01 83 1013.5
20260901210444 85 245 2.6 6.1 0.00 0.01 0.01 83 1013.5
20260901205910 85 255 2.6 6.1 0.00 0.01 0.01 84 1013.5
20260901205407 84 251 1.7 6.1 0.00 0.01 0.01 84 1013.5
20260901204904 84 251 2.6 6.1 0.00 0.01 0.01 83 1013.5
20260901204401 84 248 2.6 6.1 0.00 0.01 0.01 84 1013.5
20260901203827 84 249 2.6 6.1 0.00 0.01 0.01 84 1013.2
20260901203324 84 241 2.6 6.1 0.00 0.01 0.01 84 1013.2
20260901202822 84 244 2.6 6.1 0.00 0.01 0.01 85 1013.2
20260901202319 83 254 3.5 6.1 0.00 0.01 0.01 84 1013.2
20260901201714 83 255 2.6 6.1 0.00 0.01 0.01 85 1013.2
20260901201211 83 248 2.6 6.1 0.00 0.01 0.01 85 1013.2
20260901200709 83 245 2.6 6.1 0.00 0.01 0.01 85 1013.5
20260901200205 83 247 1.7 5.2 0.00 0.01 0.01 86 1013.5
20260901195702 83 264 2.6 3.5 0.01 0.01 0.01 85 1013.9
20260901195158 83 229 1.7 4.3 0.01 0.01 0.01 86 1013.9
20260901194655 83 269 1.7 4.3 0.01 0.01 0.01 86 1014.2
20260901194152 83 228 0.9 4.3 0.01 0.01 0.01 86 1014.2
20260901193650 83 255 1.7 4.3 0.01 0.01 0.01 86 1014.2
20260901193116 83 270 1.7 4.3 0.01 0.01 0.01 86 1014.2
20260901192613 83 261 1.7 4.3 0.01 0.01 0.01 87 1014.2
20260901192051 83 293 1.7 4.3 0.01 0.01 0.01 87 1014.2
20260901191548 83 257 1.7 4.3 0.01 0.01 0.01 87 1014.2
20260901191045 83 250 1.7 4.3 0.01 0.01 0.01 88 1014.6
20260901190542 83 247 1.7 4.3 0.01 0.01 0.01 89 1014.6
20260901190039 83 246 0.0 4.3 0.00 0.00 0.00 89 1014.6
20260901185521 83 244 1.7 4.3 0.00 0.00 0.00 88 1014.9
20260901185019 83 236 0.0 3.5 0.00 0.00 0.00 88 1014.9
20260901184515 84 236 0.0 3.5 0.00 0.00 0.00 87 1014.9
20260901184012 84 295 0.9 3.5 0.00 0.00 0.00 87 1014.9
20260901183509 84 263 0.9 3.5 0.00 0.00 0.00 86 1014.9
20260901183006 84 336 0.9 3.5 0.00 0.00 0.00 85 1014.9
20260901182432 84 270 0.9 3.5 0.00 0.00 0.00 84 1014.9
20260901181929 84 280 1.7 4.3 0.00 0.00 0.00 85 1014.9
20260901181417 84 282 0.9 4.3 0.00 0.00 0.00 85 1014.9
20260901180914 84 279 0.9 4.3 0.00 0.00 0.00 84 1014.9
20260901180411 84 306 0.9 4.3 0.00 0.00 0.00 83 1014.9
20260901175854 84 251 1.7 3.5 0.00 0.00 0.00 83 1014.9
20260901175332 84 325 1.7 2.6 0.00 0.00 0.00 84 1014.9
20260901174740 84 191 1.7 3.5 0.00 0.00 0.00 84 1015.2
20260901174236 84 249 1.7 3.5 0.00 0.00 0.00 84 1015.2
20260901173714 84 256 1.7 4.3 0.00 0.00 0.00 84 1015.2
20260901173211 84 237 1.7 4.3 0.00 0.00 0.00 84 1015.2
20260901172708 84 253 0.9 4.3 0.00 0.00 0.00 85 1015.6
20260901172205 84 289 1.7 4.3 0.00 0.00 0.00 84 1015.6
20260901171644 84 277 0.9 3.5 0.00 0.00 0.00 85 1015.9
20260901171141 84 276 1.7 2.6 0.00 0.00 0.00 84 1015.9
20260901170638 84 55 0.9 2.6 0.00 0.00 0.00 84 1016.3
20260901170136 84 57 0.9 2.6 0.00 0.00 0.00 83 1016.3
20260901165611 84 349 0.9 5.2 0.00 0.00 0.00 84 1015.9
20260901165109 85 5 0.9 5.2 0.00 0.00 0.00 83 1016.3
20260901164606 85 45 0.9 5.2 0.00 0.00 0.00 83 1016.3
20260901164103 85 72 0.9 5.2 0.00 0.00 0.00 82 1016.3
20260901163600 85 259 0.9 7.0 0.00 0.00 0.00 82 1016.3